Weather History for TJNR - April, 2013

Change the Weather History Date:

Thursday, April 25, 2013

  Actual Average Record
Temperature  
Mean Temperature 78 °F -  
Max Temperature 84 °F 83 °F 88 °F (2015)
Min Temperature 73 °F 71 °F 70 °F (1999)
Cooling Degree Days 14    
Growing Degree Days 28 (Base 50)    
Moisture  
Dew Point 71 °F    
Average Humidity 79    
Maximum Humidity 94    
Minimum Humidity 65    
Precipitation  
Precipitation 0.00 in - - ()
Sea Level Pressure  
Sea Level Pressure 30.00 in    
Wind  
Wind Speed 4 mph (ENE)    
Max Wind Speed 12 mph    
Max Gust Speed -    
Visibility 10 miles    
Events      
Averages and records for this station are not official NWS values.
T = Trace of Precipitation, MM = Missing Value Source: NWS Daily Summary

Daily Weather History Graph

Daily Weather History Graph

Search for Another Location

Airport or City:

Trip Planner

Search our weather history database for the weather conditions in past years. The results will help you decide how hot, cold, wet, or windy it might be!

Date:

Astronomy

Apr. 25, 2013 Rise Set
Actual Time 5:58 AM AST 6:42 PM AST
Civil Twilight 5:36 AM AST 7:04 PM AST
Nautical Twilight 5:09 AM AST 7:31 PM AST
Astronomical Twilight 4:43 AM AST 7:58 PM AST
Moon 6:46 PM AST (4/25) 5:38 AM AST (4/25)
Length of Visible Light 13h 28m
Length of Day
12h 43m
Full, 100% of the Moon is Illuminated
Apr 25
Full
Apr 25
Full
May 2
Last Quarter
May 9
New
May 18
First Quarter

Hourly Weather History & Observations

Time (AST) Temp. Heat Index Dew Point Humidity Pressure Visibility Wind Dir Wind Speed Gust Speed Precip Events Conditions
12:53 AM 75.0 °F - 71.1 °F 87% 30.00 in 10.0 mi Calm Calm - N/A   Partly Cloudy
1:19 AM 73.4 °F - 71.6 °F 94% 29.99 in 10.0 mi Calm Calm - N/A   Mostly Cloudy
1:53 AM 73.0 °F - 71.1 °F 93% 29.99 in 10.0 mi Calm Calm - N/A   Mostly Cloudy
2:17 AM 73.4 °F - 71.6 °F 94% 29.98 in 10.0 mi Calm Calm - N/A   Scattered Clouds
2:53 AM 75.0 °F - 73.0 °F 94% 29.97 in 10.0 mi ENE 4.6 mph - N/A   Mostly Cloudy
3:00 AM 75.2 °F - 73.4 °F 94% 29.97 in 10.0 mi ENE 5.8 mph - N/A   Mostly Cloudy
3:53 AM 75.9 °F - 71.1 °F 85% 29.96 in 10.0 mi East 8.1 mph - N/A   Partly Cloudy
4:53 AM 75.0 °F - 72.0 °F 90% 29.97 in 10.0 mi Calm Calm - N/A   Scattered Clouds
5:53 AM 75.9 °F - 71.1 °F 85% 29.99 in 10.0 mi East 4.6 mph - N/A   Mostly Cloudy
6:53 AM 77.0 °F - 70.0 °F 79% 30.01 in 10.0 mi ENE 4.6 mph - N/A   Clear
7:53 AM 79.0 °F - 70.0 °F 74% 30.02 in 10.0 mi ENE 6.9 mph - N/A   Clear
8:53 AM 80.1 °F 83.6 °F 71.1 °F 74% 30.03 in 10.0 mi ENE 6.9 mph - N/A   Scattered Clouds
9:53 AM 82.0 °F 85.9 °F 70.0 °F 67% 30.04 in 10.0 mi ENE 6.9 mph - N/A   Clear
10:53 AM 82.9 °F 87.0 °F 70.0 °F 65% 30.03 in 10.0 mi East 9.2 mph - N/A   Clear
11:53 AM 82.9 °F 87.0 °F 70.0 °F 65% 30.03 in 10.0 mi NE 9.2 mph - N/A   Clear
12:53 PM 84.0 °F 89.6 °F 72.0 °F 67% 30.01 in 10.0 mi NE 11.5 mph - N/A   Clear
1:53 PM 82.9 °F 87.5 °F 71.1 °F 67% 29.99 in 10.0 mi NE 10.4 mph - N/A   Clear
2:53 PM 82.9 °F 87.0 °F 70.0 °F 65% 29.97 in 10.0 mi NE 10.4 mph - N/A   Clear
3:53 PM 82.9 °F 87.0 °F 70.0 °F 65% 29.97 in 10.0 mi NE 11.5 mph - N/A   Partly Cloudy
4:53 PM 81.0 °F 84.9 °F 71.1 °F 72% 29.97 in 10.0 mi NE 9.2 mph - N/A   Clear
5:53 PM 78.1 °F - 70.0 °F 76% 29.98 in 10.0 mi ENE 9.2 mph - N/A   Partly Cloudy
6:53 PM 78.1 °F - 71.1 °F 79% 30.00 in 10.0 mi ENE 10.4 mph - N/A   Scattered Clouds
7:53 PM 77.0 °F - 70.0 °F 79% 30.01 in 10.0 mi ENE 8.1 mph - N/A   Partly Cloudy
8:53 PM 77.0 °F - 70.0 °F 79% 30.03 in 10.0 mi ENE 4.6 mph - N/A   Partly Cloudy
9:53 PM 77.0 °F - 69.1 °F 76% 30.04 in 10.0 mi ENE 6.9 mph - N/A   Partly Cloudy
10:53 PM 77.0 °F - 69.1 °F 76% 30.05 in 10.0 mi ENE 5.8 mph - N/A   Partly Cloudy
11:53 PM 77.0 °F - 70.0 °F 79% 30.04 in 10.0 mi ENE 5.8 mph - N/A   Mostly Cloudy